User: anonymous   Login
Location: Stillwell
(40.4602°N, 82.0928°W)
Time: 20:57:22
(UTC-04:00)
Language:

Cosmos 2333 Rocket - Orbit

View from above orbital plane
View from above orbital plane
View from above satellite
View from above satellite

Ground track
Ground track

The orbit data is extracted from the following two-line orbital elements,

1 24298U 96051B   15186.14602390 -.00000114  00000-0 -35389-4 0  9992
2 24298 070.8432 125.2353 0015677 172.0519 279.5121 14.12412990971145
Epoch (UTC): 05 July 2015 03:30:16
Eccentricity: 0.0015677
inclination: 70.8432°
perigee height: 840 km
apogee height: 862 km
right ascension of ascending node: 125.2353°
argument of perigee: 172.0519°
revolutions per day: 14.12412990
mean anomaly at epoch: 279.5121°
orbit number at epoch: 97114

The dashed part of the orbit path shows where the satellite is in the earth's shadow,  

DLR